Back to home page

LXR

 
 

    


 
  Name Size Date (UTC) Last indexed Description
  Name Size Date (UTC) Last indexed Description
folder Parent directory - 2017-02-19 22:34:00  
acquirewdt.c 8692 bytes 2017-02-19 22:34:00 2017-02-23 14:53:29

Theory of Operation: The Watch-Dog Timer is provided to ensure that standalone Systems can always recover from catastrophic conditions that caused the CPU to crash.

advantechwdt.c 7983 bytes 2017-02-19 22:34:00 2017-02-23 14:53:29  
alim1535_wdt.c 10135 bytes 2017-02-19 22:34:00 2017-02-23 14:53:30  
alim7101_wdt.c 11167 bytes 2017-02-19 22:34:00 2017-02-23 14:53:30  
ar7_wdt.c 7879 bytes 2017-02-19 22:34:00 2017-02-23 14:53:30  
asm9260_wdt.c 9404 bytes 2017-02-19 22:34:00 2017-02-23 14:53:30  
aspeed_wdt.c 5157 bytes 2017-02-19 22:34:00 2017-02-23 14:53:30  
at32ap700x_wdt.c 9841 bytes 2017-02-19 22:34:00 2017-02-23 14:53:30  
at91rm9200_wdt.c 8064 bytes 2017-02-19 22:34:00 2017-02-23 14:53:30  
at91sam9_wdt.c 10960 bytes 2017-02-19 22:34:00 2017-02-23 14:53:30

The Watchdog Timer Mode Register can be only written to once. If the timeout need to be set from Linux, be sure that the bootstrap or the bootloader doesn't write to this register.

at91sam9_wdt.h 1530 bytes 2017-02-19 22:34:00 2017-02-23 14:53:30  
ath79_wdt.c 7593 bytes 2017-02-19 22:34:00 2017-02-23 14:53:30  
atlas7_wdt.c 5975 bytes 2017-02-19 22:34:00 2017-02-23 14:53:30  
bcm2835_wdt.c 7502 bytes 2017-02-19 22:34:00 2017-02-23 14:53:31  
bcm47xx_wdt.c 6150 bytes 2017-02-19 22:34:00 2017-02-23 14:53:31  
bcm63xx_wdt.c 7136 bytes 2017-02-19 22:34:00 2017-02-23 14:53:31  
bcm7038_wdt.c 5868 bytes 2017-02-19 22:34:00 2017-02-23 14:53:31  
bcm_kona_wdt.c 9615 bytes 2017-02-19 22:34:00 2017-02-23 14:53:31  
bfin_wdt.c 10356 bytes 2017-02-19 22:34:00 2017-02-23 14:53:31  
booke_wdt.c 5971 bytes 2017-02-19 22:34:00 2017-02-23 14:53:31  
cadence_wdt.c 13212 bytes 2017-02-19 22:34:00 2017-02-23 14:53:31  
coh901327_wdt.c 13086 bytes 2017-02-19 22:34:00 2017-02-23 14:53:31  
cpu5wdt.c 6791 bytes 2017-02-19 22:34:00 2017-02-23 14:53:31  
cpwd.c 16172 bytes 2017-02-19 22:34:00 2017-02-23 14:53:32 driver implementation for hardware watchdog
da9052_wdt.c 5337 bytes 2017-02-19 22:34:00 2017-02-23 14:53:32  
da9055_wdt.c 4605 bytes 2017-02-19 22:34:00 2017-02-23 14:53:32  
da9062_wdt.c 6697 bytes 2017-02-19 22:34:00 2017-02-23 14:53:32  
da9063_wdt.c 5534 bytes 2017-02-19 22:34:00 2017-02-23 14:53:32  
davinci_wdt.c 6598 bytes 2017-02-19 22:34:00 2017-02-23 14:53:32  
diag288_wdt.c 7647 bytes 2017-02-19 22:34:00 2017-02-23 14:53:32  
digicolor_wdt.c 4645 bytes 2017-02-19 22:34:00 2017-02-23 14:53:32  
dw_wdt.c 8259 bytes 2017-02-19 22:34:00 2017-02-23 14:53:32  
ebc-c384_wdt.c 4305 bytes 2017-02-19 22:34:00 2017-02-23 14:53:32  
ep93xx_wdt.c 4452 bytes 2017-02-19 22:34:00 2017-02-23 14:53:32  
eurotechwdt.c 10928 bytes 2017-02-19 22:34:00 2017-02-23 14:53:32  
f71808e_wdt.c 22084 bytes 2017-02-19 22:34:00 2017-02-23 14:53:33  
gef_wdt.c 7672 bytes 2017-02-19 22:34:00 2017-02-23 14:53:33

TODO: This driver does not provide support for the hardwares capability of sending an interrupt at a programmable threshold.

geodewdt.c 6603 bytes 2017-02-19 22:34:00 2017-02-23 14:53:33  
gpio_wdt.c 6045 bytes 2017-02-19 22:34:00 2017-02-23 14:53:33  
hpwdt.c 22343 bytes 2017-02-19 22:34:00 2017-02-23 14:53:33  
i6300esb.c 12672 bytes 2017-02-19 22:34:00 2017-02-23 14:53:33

Includes, defines, variables, module parameters, ...

ib700wdt.c 8519 bytes 2017-02-19 22:34:00 2017-02-23 14:53:34  
ibmasr.c 9628 bytes 2017-02-19 22:34:00 2017-02-23 14:53:34  
ie6xx_wdt.c 8769 bytes 2017-02-19 22:34:00 2017-02-23 14:53:34  
imgpdc_wdt.c 9602 bytes 2017-02-19 22:34:00 2017-02-23 14:53:34  
imx2_wdt.c 12196 bytes 2017-02-19 22:34:00 2017-02-23 14:53:35  
indydog.c 4703 bytes 2017-02-19 22:34:00 2017-02-23 14:53:35  
intel-mid_wdt.c 4391 bytes 2017-02-19 22:34:00 2017-02-23 14:53:39  
intel_scu_watchdog.c 15396 bytes 2017-02-19 22:34:00 2017-02-23 14:53:40  
intel_scu_watchdog.h 2053 bytes 2017-02-19 22:34:00 2017-02-23 14:53:40  
iop_wdt.c 6030 bytes 2017-02-19 22:34:00 2017-02-23 14:53:40  
it8712f_wdt.c 10199 bytes 2017-02-19 22:34:00 2017-02-23 14:53:45  
it87_wdt.c 18753 bytes 2017-02-19 22:34:00 2017-02-23 14:53:45  
iTCO_vendor.h 680 bytes 2017-02-19 22:34:00 2017-02-23 14:53:45

iTCO Vendor Specific Support hooks

iTCO_vendor_support.c 11089 bytes 2017-02-19 22:34:00 2017-02-23 14:53:45

Includes, defines, variables, module parameters, ...

iTCO_wdt.c 19352 bytes 2017-02-19 22:34:00 2017-02-23 14:53:46

Includes, defines, variables, module parameters, ...

ixp4xx_wdt.c 4680 bytes 2017-02-19 22:34:00 2017-02-23 14:53:49  
jz4740_wdt.c 6365 bytes 2017-02-19 22:34:00 2017-02-23 14:53:50  
Kconfig 59453 bytes 2017-02-19 22:34:00 -  
kempld_wdt.c 14813 bytes 2017-02-19 22:34:00 2017-02-23 14:53:50  
ks8695_wdt.c 7838 bytes 2017-02-19 22:34:00 2017-02-23 14:53:50  
lantiq_wdt.c 5878 bytes 2017-02-19 22:34:00 2017-02-23 14:53:50  
loongson1_wdt.c 4114 bytes 2017-02-19 22:34:00 2017-02-23 14:53:50  
lpc18xx_wdt.c 9307 bytes 2017-02-19 22:34:00 2017-02-23 14:53:51  
m54xx_wdt.c 5130 bytes 2017-02-19 22:34:00 2017-02-23 14:53:51  
machzwd.c 10054 bytes 2017-02-19 22:34:00 2017-02-23 14:53:51  
Makefile 7744 bytes 2017-02-19 22:34:00 2017-02-23 14:53:51  
max63xx_wdt.c 7154 bytes 2017-02-19 22:34:00 2017-02-23 14:53:51  
max77620_wdt.c 5525 bytes 2017-02-19 22:34:00 2017-02-23 14:53:51  
mei_wdt.c 15642 bytes 2017-02-19 22:34:00 2017-02-23 14:53:51  
mena21_wdt.c 6031 bytes 2017-02-19 22:34:00 2017-02-23 14:53:52  
menf21bmc_wdt.c 5492 bytes 2017-02-19 22:34:00 2017-02-23 14:53:52  
meson_gxbb_wdt.c 8102 bytes 2017-02-19 22:34:00 2017-02-23 14:53:52  
meson_wdt.c 6585 bytes 2017-02-19 22:34:00 2017-02-23 14:53:52  
mixcomwd.c 7428 bytes 2017-02-19 22:34:00 2017-02-23 14:53:52  
moxart_wdt.c 4566 bytes 2017-02-19 22:34:00 2017-02-23 14:53:52  
mpc8xxx_wdt.c 6994 bytes 2017-02-19 22:34:00 2017-02-23 14:53:52 MPC8xx/MPC83xx/MPC86xx watchdog userspace interface
mt7621_wdt.c 4294 bytes 2017-02-19 22:34:00 2017-02-23 14:53:52  
mtk_wdt.c 6862 bytes 2017-02-19 22:34:00 2017-02-23 14:53:52  
mtx-1_wdt.c 6368 bytes 2017-02-19 22:34:00 2017-02-23 14:53:52  
mv64x60_wdt.c 7825 bytes 2017-02-19 22:34:00 2017-02-23 14:53:52 MV64X60 (Marvell Discovery) watchdog userspace interface
ni903x_wdt.c 6899 bytes 2017-02-19 22:34:00 2017-02-23 14:53:52  
nuc900_wdt.c 7310 bytes 2017-02-19 22:34:00 2017-02-23 14:53:53  
nv_tco.c 12493 bytes 2017-02-19 22:34:00 2017-02-23 14:53:53

Includes, defines, variables, module parameters, ...

nv_tco.h 2062 bytes 2017-02-19 22:34:00 2017-02-23 14:53:53

Some address definitions for the TCO

octeon-wdt-main.c 16556 bytes 2017-02-19 22:34:00 2017-02-23 14:53:53  
octeon-wdt-nmi.S 1370 bytes 2017-02-19 22:34:00 2017-02-23 14:53:53  
of_xilinx_wdt.c 6996 bytes 2017-02-19 22:34:00 2017-02-23 14:53:53  
omap_wdt.c 9788 bytes 2017-02-19 22:34:00 2017-02-23 14:53:53  
omap_wdt.h 2300 bytes 2017-02-19 22:34:00 2017-02-23 14:53:53  
orion_wdt.c 16996 bytes 2017-02-19 22:34:00 2017-02-23 14:53:54  
pc87413_wdt.c 14364 bytes 2017-02-19 22:34:00 2017-02-23 14:53:54  
pcwd.c 26527 bytes 2017-02-19 22:34:00 2017-02-23 14:53:54  
pcwd_pci.c 20378 bytes 2017-02-19 22:34:00 2017-02-23 14:53:54

A bells and whistles driver is available from: kernel.org/pub/linux/kernel/people/wim/pcwd/pcwd_pci/">http://www.kernel.org/pub/linux/kernel/people/wim/pcwd/pcwd_pci/ More info available at berkprod.com/">http://www.berkprod.com/ or pcwatchdog.com/">http://www.pcwatchdog.com/

pcwd_usb.c 21590 bytes 2017-02-19 22:34:00 2017-02-23 14:53:54  
pic32-dmt.c 5743 bytes 2017-02-19 22:34:00 2017-02-23 14:53:54  
pic32-wdt.c 6240 bytes 2017-02-19 22:34:00 2017-02-23 14:53:54  
pika_wdt.c 6878 bytes 2017-02-19 22:34:00 2017-02-23 14:53:55  
pnx4008_wdt.c 7267 bytes 2017-02-19 22:34:00 2017-02-23 14:53:55  
pnx833x_wdt.c 7250 bytes 2017-02-19 22:34:00 2017-02-23 14:53:55  
pretimeout_noop.c 1270 bytes 2017-02-19 22:34:00 2017-02-23 14:53:55  
pretimeout_panic.c 1252 bytes 2017-02-19 22:34:00 2017-02-23 14:53:55  
qcom-wdt.c 6521 bytes 2017-02-19 22:34:00 2017-02-23 14:53:55  
rc32434_wdt.c 8324 bytes 2017-02-19 22:34:00 2017-02-23 14:53:55  
rdc321x_wdt.c 7328 bytes 2017-02-19 22:34:00 2017-02-23 14:53:55  
renesas_wdt.c 5365 bytes 2017-02-19 22:34:00 2017-02-23 14:53:55  
retu_wdt.c 4630 bytes 2017-02-19 22:34:00 2017-02-23 14:53:55  
riowd.c 5716 bytes 2017-02-19 22:34:00 2017-02-23 14:53:55 driver for hw watchdog inside Super I/O of RIO
rn5t618_wdt.c 5293 bytes 2017-02-19 22:34:00 2017-02-23 14:53:55  
rt2880_wdt.c 5041 bytes 2017-02-19 22:34:00 2017-02-23 14:53:55  
s3c2410_wdt.c 19929 bytes 2017-02-19 22:34:00 2017-02-23 14:53:56  
sa1100_wdt.c 5229 bytes 2017-02-19 22:34:00 2017-02-23 14:53:56  
sama5d4_wdt.c 6468 bytes 2017-02-19 22:34:00 2017-02-23 14:53:56  
sb_wdog.c 8737 bytes 2017-02-19 22:34:00 2017-02-23 14:53:56  
sbc60xxwdt.c 10352 bytes 2017-02-19 22:34:00 2017-02-23 14:53:56  
sbc7240_wdt.c 7049 bytes 2017-02-19 22:34:00 2017-02-23 14:53:56  
sbc8360.c 10039 bytes 2017-02-19 22:34:00 2017-02-23 14:53:56  
sbc_epx_c3.c 5119 bytes 2017-02-19 22:34:00 2017-02-23 14:53:57  
sbc_fitpc2_wdt.c 5377 bytes 2017-02-19 22:34:00 2017-02-23 14:53:57  
sbsa_gwdt.c 11246 bytes 2017-02-19 22:34:00 2017-02-23 14:53:57  
sc1200wdt.c 11388 bytes 2017-02-19 22:34:00 2017-02-23 14:53:58  
sc520_wdt.c 11080 bytes 2017-02-19 22:34:00 2017-02-23 14:53:58  
sch311x_wdt.c 13801 bytes 2017-02-19 22:34:00 2017-02-23 14:53:58 Driver for the SCH311x Super-I/O chips
scx200_wdt.c 6599 bytes 2017-02-19 22:34:00 2017-02-23 14:53:58  
shwdt.c 9322 bytes 2017-02-19 22:34:00 2017-02-23 14:53:58  
sirfsoc_wdt.c 5819 bytes 2017-02-19 22:34:00 2017-02-23 14:53:58  
smsc37b787_wdt.c 15474 bytes 2017-02-19 22:34:00 2017-02-23 14:53:58  
softdog.c 4137 bytes 2017-02-19 22:34:00 2017-02-23 14:53:58  
sp5100_tco.c 15328 bytes 2017-02-19 22:34:00 2017-02-23 14:53:58

Includes, defines, variables, module parameters, ...

sp5100_tco.h 1732 bytes 2017-02-19 22:34:00 2017-02-23 14:53:58

Some address definitions for the Watchdog

sp805_wdt.c 7312 bytes 2017-02-19 22:34:00 2017-02-23 14:53:59  
st_lpc_wdt.c 7474 bytes 2017-02-19 22:34:00 2017-02-23 14:53:59  
stmp3xxx_rtc_wdt.c 4121 bytes 2017-02-19 22:34:00 2017-02-23 14:53:59  
sun4v_wdt.c 4594 bytes 2017-02-19 22:34:00 2017-02-23 14:53:59  
sunxi_wdt.c 8447 bytes 2017-02-19 22:34:00 2017-02-23 14:53:59  
tangox_wdt.c 5514 bytes 2017-02-19 22:34:00 2017-02-23 14:53:59  
tegra_wdt.c 7896 bytes 2017-02-19 22:34:00 2017-02-23 14:53:59  
ts4800_wdt.c 5352 bytes 2017-02-19 22:34:00 2017-02-23 14:53:59  
ts72xx_wdt.c 10015 bytes 2017-02-19 22:34:00 2017-02-23 14:53:59  
twl4030_wdt.c 3873 bytes 2017-02-19 22:34:00 2017-02-23 14:53:59  
txx9wdt.c 4683 bytes 2017-02-19 22:34:00 2017-02-23 14:53:59  
ux500_wdt.c 4104 bytes 2017-02-19 22:34:00 2017-02-23 14:53:59  
via_wdt.c 7638 bytes 2017-02-19 22:34:00 2017-02-23 14:53:59  
w83627hf_wdt.c 10637 bytes 2017-02-19 22:34:00 2017-02-23 14:54:00  
w83877f_wdt.c 10171 bytes 2017-02-19 22:34:00 2017-02-23 14:54:00  
w83977f_wdt.c 12093 bytes 2017-02-19 22:34:00 2017-02-23 14:54:00  
wafer5823wdt.c 7256 bytes 2017-02-19 22:34:00 2017-02-23 14:54:00  
watchdog_core.c 11342 bytes 2017-02-19 22:34:00 2017-02-23 14:54:00  
watchdog_core.h 1330 bytes 2017-02-19 22:34:00 2017-02-23 14:54:00  
watchdog_dev.c 27793 bytes 2017-02-19 22:34:00 2017-02-23 14:54:00  
watchdog_pretimeout.c 4804 bytes 2017-02-19 22:34:00 2017-02-23 14:54:00  
watchdog_pretimeout.h 1645 bytes 2017-02-19 22:34:00 2017-02-23 14:54:00  
wd501p.h 1598 bytes 2017-02-19 22:34:00 2017-02-23 14:54:00  
wdat_wdt.c 13007 bytes 2017-02-19 22:34:00 2017-02-23 14:54:00  
wdrtas.c 15626 bytes 2017-02-19 22:34:00 2017-02-23 14:54:01  
wdt.c 15830 bytes 2017-02-19 22:34:00 2017-02-23 14:54:01  
wdt285.c 4856 bytes 2017-02-19 22:34:00 2017-02-23 14:54:01  
wdt977.c 12079 bytes 2017-02-19 22:34:00 2017-02-23 14:54:01  
wdt_pci.c 17672 bytes 2017-02-19 22:34:00 2017-02-23 14:54:01  
wm831x_wdt.c 7533 bytes 2017-02-19 22:34:00 2017-02-23 14:54:01  
wm8350_wdt.c 4240 bytes 2017-02-19 22:34:00 2017-02-23 14:54:01  
xen_wdt.c 7630 bytes 2017-02-19 22:34:00 2017-02-23 14:54:01  
ziirave_wdt.c 19774 bytes 2017-02-19 22:34:00 2017-02-23 14:54:01